User: anonymous   Login
Location: Unspecified
(0.0000°N, 0.0000°E)
Time: 21:23:32
(UTC+02:00)
Language:

Ariane H10 - Orbit

View from above orbital plane
View from above orbital plane
View from above satellite
View from above satellite

Ground track
Ground track

The orbit data is extracted from the following two-line orbital elements,

1 21815U 91084C   15238.18303575  .00000158  00000-0  34597-3 0  9995
2 21815 004.4021 355.4381 7188303 253.8907 148.8078 02.31347960197001
Epoch (UTC): 26 August 2015 04:23:34
Eccentricity: 0.7188303
inclination: 4.4021°
perigee height: 412 km
apogee height: 35129 km
right ascension of ascending node: 355.4381°
argument of perigee: 253.8907°
revolutions per day: 2.31347960
mean anomaly at epoch: 148.8078°
orbit number at epoch: 19700

The dashed part of the orbit path shows where the satellite is in the earth's shadow,  

DLR